Location: Mahannah Oil Field
(37.4664°N, 96.6003°W)
Time: 01:37:36
(UTC+00:00)

A-11 Canister half - Pass Details

Date: 30 January 2021
Orbit: 1524 x 1684 km, 47.3° (Epoch: 25 February)

Event Time Altitude Azimuth Distance (km) Brightness Sun altitude
Rises 16:05:21 0° 172° (S) 4,676 12.4 24.1°
Reaches altitude 10° 16:10:41 10° 147° (SSE) 3,684 12.9 24.8°
Maximum altitude 16:14:28 13° 122° (ESE) 3,436 12.4 25.3°
Drops below altitude 10° 16:18:15 10° 97° (E) 3,688 11.8 25.8°
Sets 16:23:33 0° 73° (ENE) 4,686 11.8 26.4°
